* Astronomy

Members Login
Username 
 
Password 
    Remember Me  
Post Info TOPIC: Asteroid 2011 CF50


L

Posts: 131433
Date:
RE: Asteroid 2011 CF50
Permalink  
 


Object
Name
Close
Approach
Date
Miss
Distance
(AU)
Miss
Distance
(LD)
Estimated
Diameter*
H
(mag)
Relative
Velocity
(km/s)
(2011 CF50) 2011-Feb-19 0.0456 17.7 11 m - 25 m 26.9 8.33


__________________


L

Posts: 131433
Date:
Permalink  
 

Orbital elements:
2011 CF50 Earth MOID = 0.0433 AU
Epoch 2011 Feb. 8.0 TT = JDT 2455600.5 MPC
M 352.35821 (2000.0) P Q
n 0.35445370 Peri. 196.29955 -0.95290279 -0.28928994
a 1.9774084 Node 326.45078 +0.29338811 -0.80329901
e 0.4825705 Incl. 9.48131 +0.07680943 -0.52059776
P 2.78 H 26.9 G 0.15 U 8

MPEC 2011 - C84


__________________
Page 1 of 1  sorted by
 
Quick Reply

Please log in to post quick replies.



Create your own FREE Forum
Report Abuse
Powered by ActiveBoard